Location: Ballingbuur
(53.0000°N, 5.7667°E)
Time: 17:49:47
(UTC+00:00)

USA 229 DEB - Visible Passes

Search period start: 13 April 2021 00:00
Search period end: 23 April 2021 00:00
Orbit: 960 x 1252 km, 63.4° (Epoch: 11 April)

Date Brightness Start Highest point End Pass type
(mag) Time Alt. Az. Time Alt. Az. Time Alt. Az.
13 Apr 3.8 00:12:50 10° NW 00:19:59 63° SW 00:20:48 60° SSW visible
13 Apr 5.4 02:05:10 10° WNW 02:08:12 17° W 02:08:12 17° W visible
13 Apr 5.1 19:44:47 10° WNW 19:51:01 36° N 19:57:40 10° ENE visible
13 Apr 4.7 21:36:50 10° NW 21:43:34 45° NNE 21:49:35 15° E visible
13 Apr 3.7 23:27:58 10° NW 23:35:12 84° SW 23:37:00 57° SE visible
14 Apr 4.9 01:19:34 10° WNW 01:24:24 26° W 01:24:24 26° W visible
14 Apr 5.0 18:59:29 10° W 19:05:45 38° NNW 19:12:25 10° NE visible
14 Apr 4.9 20:51:50 10° NW 20:58:21 40° NNE 21:05:18 10° E visible
14 Apr 3.9 22:43:07 10° NW 22:50:19 77° NE 22:53:15 41° ESE visible
15 Apr 4.5 00:34:22 10° NW 00:40:39 38° WSW 00:40:39 38° WSW visible
15 Apr 5.0 20:06:44 10° WNW 20:13:05 37° N 20:19:52 10° ENE visible
15 Apr 4.2 21:58:16 10° NW 22:05:19 61° NNE 22:09:33 27° ESE visible
15 Apr 4.0 23:49:21 10° NW 23:56:22 53° SW 23:56:57 52° SW visible
16 Apr 5.6 01:42:32 10° WNW 01:44:22 13° W 01:44:22 13° W visible
16 Apr 5.1 19:21:32 10° WNW 19:27:46 36° N 19:34:27 10° ENE visible
16 Apr 4.5 21:13:22 10° NW 21:20:15 50° NNE 21:25:54 17° E visible
16 Apr 3.8 23:04:27 10° NW 23:11:40 71° SW 23:13:19 55° S visible
17 Apr 5.2 00:56:26 10° WNW 01:00:43 21° W 01:00:43 21° W visible
17 Apr 4.7 20:28:25 10° NW 20:35:04 43° NNE 20:42:09 10° E visible
17 Apr 3.8 22:19:36 10° NW 22:26:50 88° NE 22:29:42 43° SE visible
18 Apr 4.8 00:11:02 10° WNW 00:17:07 31° WSW 00:17:07 31° WSW visible
18 Apr 4.9 19:43:22 10° NW 19:49:50 38° NNE 19:56:43 10° E visible
18 Apr 4.0 21:34:45 10° NW 21:41:55 70° NE 21:46:08 29° ESE visible
18 Apr 4.3 23:25:56 10° NW 23:32:44 43° WSW 23:33:33 42° SW visible
19 Apr 4.3 20:49:54 10° NW 20:56:53 56° NNE 21:02:35 18° ESE visible
19 Apr 4.0 22:40:58 10° NW 22:48:05 60° SW 22:50:00 47° S visible
20 Apr 5.5 00:33:31 10° WNW 00:37:26 16° WSW 00:37:26 16° WSW visible
20 Apr 4.6 20:04:58 10° NW 20:11:45 47° NNE 20:18:59 10° E visible
20 Apr 3.8 21:56:06 10° NW 22:03:19 80° SW 22:06:30 39° SSE visible
20 Apr 5.1 23:47:48 10° WNW 23:53:29 25° WSW 23:53:56 25° WSW visible
21 Apr 4.8 19:19:59 10° NW 19:26:33 41° NNE 19:33:34 10° E visible
21 Apr 3.9 21:11:15 10° NW 21:18:27 80° NE 21:23:01 27° SE visible
21 Apr 4.6 23:02:33 10° NW 23:09:02 35° WSW 23:10:27 33° SW visible
22 Apr 4.1 20:26:24 10° NW 20:33:29 64° NE 20:39:36 17° ESE visible
22 Apr 4.3 22:17:31 10° NW 22:24:28 49° WSW 22:27:01 36° S visible
